EA3E-1 Weather Reports


time (UTC)temp
C
wind
direction
speed
KPH
gust
KPH
rain 1hr
cm
rain 24hr
cm
rain mn
cm
humidity
%
barometer
mb
20260902110206 31 1 6.4 12.9 0.00 0.00 0.00 44 1019.5
20260902105306 31 1 6.4 12.9 0.00 0.00 0.00 45 1019.5
20260902104406 31 1 6.4 14.5 0.00 0.00 0.00 45 1019.6
20260902103506 30 1 4.8 14.5 0.00 0.00 0.00 45 1019.7
20260902102606 30 1 4.8 11.3 0.00 0.00 0.00 44 1019.7
20260902101705 30 1 4.8 9.7 0.00 0.00 0.00 44 1019.8
20260902100806 30 1 3.2 9.7 0.00 0.00 0.00 44 1019.8
20260902095905 30 1 1.6 9.7 0.00 0.00 0.00 44 1019.8
20260902095005 30 1 1.6 8.0 0.00 0.00 0.00 44 1019.8
20260902094105 30 1 1.6 8.0 0.00 0.00 0.00 45 1019.9
20260902093205 29 1 3.2 8.0 0.00 0.00 0.00 46 1020.0
20260902092306 29 1 3.2 11.3 0.00 0.00 0.00 46 1019.9
20260902091405 29 2 3.2 6.4 0.00 0.00 0.00 48 1019.9
20260902090505 28 1 4.8 8.0 0.00 0.00 0.00 47 1019.8
20260902085605 28 1 3.2 6.4 0.00 0.00 0.00 48 1019.8
20260902084705 28 1 3.2 6.4 0.00 0.00 0.00 49 1019.7
20260902083805 28 1 3.2 6.4 0.00 0.00 0.00 51 1019.6
20260902082005 27 1 1.6 4.8 0.00 0.00 0.00 53 1019.6
20260902081105 27 1 1.6 4.8 0.00 0.00 0.00 54 1019.5
20260902080205 26 1 1.6 4.8 0.00 0.00 0.00 58 1019.5
20260902075306 26 1 1.6 3.2 0.00 0.00 0.00 60 1019.5
20260902074405 25 1 1.6 4.8 0.00 0.00 0.00 62 1019.4
20260902073505 25 1 1.6 6.4 0.00 0.00 0.00 63 1019.4
20260902072605 24 1 1.6 4.8 0.00 0.00 0.00 64 1019.4
20260902071705 23 1 1.6 4.8 0.00 0.00 0.00 65 1019.3
20260902070805 23 1 0.0 4.8 0.00 0.00 0.00 67 1019.2
20260902065905 22 1 1.6 3.2 0.00 0.00 0.00 69 1019.2
20260902065005 22 1 0.0 4.8 0.00 0.00 0.00 70 1019.2
20260902064105 21 0 0.0 0.0 0.00 0.00 0.00 71 1019.2
20260902063205 21 0 0.0 0.0 0.00 0.00 0.00 73 1019.1
20260902060505 20 1 1.6 4.8 0.00 0.00 0.00 75 1019.0
20260902055605 20 1 0.0 6.4 0.00 0.00 0.00 75 1018.9
20260902054705 20 0 0.0 0.0 0.00 0.00 0.00 76 1018.8
20260902052905 20 0 0.0 0.0 0.00 0.00 0.00 76 1018.7
20260902051105 20 0 0.0 0.0 0.00 0.00 0.00 76 1018.6
20260902050205 20 0 0.0 0.0 0.00 0.00 0.00 76 1018.5
20260902045306 20 0 0.0 0.0 0.00 0.00 0.00 76 1018.4
20260902044404 20 0 0.0 0.0 0.00 0.00 0.00 76 1018.4
20260902043505 20 0 0.0 0.0 0.00 0.00 0.00 76 1018.4
20260902041705 20 0 0.0 0.0 0.00 0.00 0.00 76 1018.3
20260902040805 20 0 0.0 0.0 0.00 0.00 0.00 76 1018.4
20260902035905 20 0 0.0 0.0 0.00 0.00 0.00 76 1018.4
20260902035004 20 0 0.0 0.0 0.00 0.00 0.00 76 1018.4
20260902033204 20 0 0.0 0.0 0.00 0.00 0.00 76 1018.4
20260902032306 20 0 0.0 0.0 0.00 0.00 0.00 76 1018.4
20260902025604 20 0 0.0 0.0 0.00 0.00 0.00 75 1018.5
20260902024704 20 0 0.0 0.0 0.00 0.00 0.00 75 1018.5
20260902023804 20 1 0.0 1.6 0.00 0.00 0.00 75 1018.6
20260902022904 21 1 1.6 3.2 0.00 0.00 0.00 75 1018.5
20260902022004 20 1 0.0 4.8 0.00 0.00 0.00 76 1018.5
20260902021104 20 0 0.0 0.0 0.00 0.00 0.00 76 1018.6
20260902020204 20 0 0.0 0.0 0.00 0.00 0.00 75 1018.6
20260902015306 20 1 0.0 1.6 0.00 0.00 0.00 75 1018.6
20260902014404 21 1 0.0 3.2 0.00 0.00 0.00 75 1018.5
20260902011704 21 1 1.6 1.6 0.00 0.00 0.00 75 1018.5
20260902010804 21 1 3.2 4.8 0.00 0.00 0.00 75 1018.6
20260902005904 21 1 3.2 6.4 0.00 0.00 0.00 75 1018.6
20260902005004 21 1 0.0 6.4 0.00 0.00 0.00 75 1018.6
20260902004104 20 0 0.0 0.0 0.00 0.00 0.00 75 1018.7
20260902003204 20 1 1.6 3.2 0.00 0.00 0.00 76 1018.7
20260902001404 20 1 4.8 8.0 0.00 0.00 0.00 76 1018.7
20260902000504 20 1 8.0 9.7 0.00 0.00 0.00 76 1018.5
20260901235604 20 1 8.0 11.3 0.00 0.00 0.00 76 1018.5
20260901232904 22 1 4.8 6.4 0.00 0.00 0.00 74 1018.5
20260901232004 22 1 4.8 9.7 0.00 0.00 0.00 74 1018.3
20260901231104 21 1 6.4 11.3 0.00 0.00 0.00 74 1018.4
20260901225306 21 1 4.8 9.7 0.00 0.00 0.00 74 1018.2
20260901224404 21 1 6.4 9.7 0.00 0.00 0.00 74 1018.1
20260901223504 22 1 6.4 9.7 0.00 0.00 0.00 74 1018.1
20260901222604 22 1 4.8 9.7 0.00 0.00 0.00 73 1018.2
20260901221704 23 1 1.6 6.4 0.00 0.00 0.00 72 1018.1
20260901220804 23 1 0.0 4.8 0.00 0.00 0.00 73 1018.0
20260901215904 23 1 0.0 1.6 0.00 0.00 0.00 73 1017.9
20260901215004 23 1 0.0 3.2 0.00 0.00 0.00 72 1017.9
20260901214103 23 1 0.0 4.8 0.00 0.00 0.00 72 1017.8
20260901213203 23 0 0.0 0.0 0.00 0.00 0.00 71 1017.8
20260901212306 23 1 1.6 1.6 0.00 0.00 0.00 72 1017.6
20260901211404 23 1 1.6 4.8 0.00 0.00 0.00 71 1017.6
20260901205604 24 1 0.0 3.2 0.00 0.00 0.00 71 1017.8
20260901203803 24 0 0.0 0.0 0.00 0.00 0.00 72 1017.7
20260901202903 24 0 0.0 0.0 0.00 0.00 0.00 72 1017.8
20260901202003 24 0 0.0 0.0 0.00 0.00 0.00 72 1017.8
20260901200203 25 1 0.0 4.8 0.00 0.00 0.00 71 1017.7
20260901195305 24 1 3.2 4.8 0.00 0.00 0.00 71 1017.5
20260901194403 25 1 4.8 8.0 0.00 0.00 0.00 71 1017.3
20260901193503 25 1 4.8 8.0 0.00 0.00 0.00 71 1017.2
20260901191703 25 1 4.8 9.7 0.00 0.00 0.00 69 1017.1
20260901190803 25 1 4.8 8.0 0.00 0.00 0.00 67 1017.0
20260901185903 25 1 6.4 8.0 0.00 0.00 0.00 67 1016.9
20260901185003 25 1 4.8 8.0 0.00 0.00 0.00 67 1016.9
20260901184103 25 1 3.2 9.7 0.00 0.00 0.00 67 1016.7
20260901182305 26 1 3.2 8.0 0.00 0.00 0.00 67 1017.0
20260901181403 26 1 4.8 8.0 0.00 0.00 0.00 67 1017.1
20260901180503 26 1 4.8 9.7 0.00 0.00 0.00 66 1017.0
20260901175603 26 1 3.2 9.7 0.00 0.00 0.00 65 1017.0
20260901174703 26 1 4.8 8.0 0.00 0.00 0.00 64 1017.1
20260901173803 26 1 3.2 12.9 0.00 0.00 0.00 64 1017.2
20260901172903 26 1 3.2 8.0 0.00 0.00 0.00 64 1017.4
20260901172003 26 1 4.8 8.0 0.00 0.00 0.00 63 1017.4
20260901171103 26 1 6.4 12.9 0.00 0.00 0.00 64 1017.2
20260901170203 26 1 4.8 12.9 0.00 0.00 0.00 63 1017.3
20260901165306 26 1 6.4 14.5 0.00 0.00 0.00 62 1017.3
20260901164403 26 1 6.4 16.1 0.00 0.00 0.00 61 1017.3
20260901163503 27 1 4.8 16.1 0.00 0.00 0.00 60 1017.6
20260901162603 27 1 4.8 12.9 0.00 0.00 0.00 60 1017.6
20260901161703 26 1 6.4 14.5 0.00 0.00 0.00 60 1017.5
20260901160803 26 1 6.4 16.1 0.00 0.00 0.00 60 1017.4
20260901155903 26 1 6.4 14.5 0.00 0.00 0.00 59 1017.5
20260901155003 27 1 6.4 16.1 0.00 0.00 0.00 58 1017.6
20260901154103 27 1 6.4 16.1 0.00 0.00 0.00 56 1017.4
20260901153202 27 1 6.4 14.5 0.00 0.00 0.00 57 1017.6
20260901152305 27 1 6.4 12.9 0.00 0.00 0.00 56 1017.5
20260901151402 27 1 6.4 16.1 0.00 0.00 0.00 56 1017.5
20260901150502 27 1 6.4 16.1 0.00 0.00 0.00 55 1017.6
20260901145602 26 1 6.4 14.5 0.00 0.00 0.00 55 1017.7
20260901144702 26 1 6.4 14.5 0.00 0.00 0.00 54 1017.7
20260901143803 26 1 6.4 14.5 0.00 0.00 0.00 54 1017.7
20260901142902 27 1 6.4 17.7 0.00 0.00 0.00 53 1017.8
20260901141102 27 1 8.0 19.3 0.00 0.00 0.00 50 1017.9
20260901140202 27 1 8.0 19.3 0.00 0.00 0.00 50 1017.8
20260901135305 27 1 8.0 16.1 0.00 0.00 0.00 49 1018.0
20260901134402 27 1 9.7 22.5 0.00 0.00 0.00 50 1018.2
20260901133502 27 1 8.0 22.5 0.00 0.00 0.00 48 1018.2
20260901132602 28 1 9.7 19.3 0.00 0.00 0.00 48 1018.2
20260901131702 28 1 9.7 24.1 0.00 0.00 0.00 47 1018.4
20260901130802 28 1 11.3 20.9 0.00 0.00 0.00 47 1018.4
20260901125902 28 1 9.7 20.9 0.00 0.00 0.00 46 1018.5
20260901125002 28 1 11.3 22.5 0.00 0.00 0.00 46 1018.6
20260901124102 28 1 11.3 25.7 0.00 0.00 0.00 45 1018.7
20260901123202 28 1 11.3 25.7 0.00 0.00 0.00 45 1018.7
20260901122305 28 1 11.3 24.1 0.00 0.00 0.00 45 1018.6
20260901121402 29 1 11.3 22.5 0.00 0.00 0.00 44 1018.6
20260901115602 29 1 6.4 16.1 0.00 0.00 0.00 45 1018.5
20260901114702 29 1 8.0 16.1 0.00 0.00 0.00 45 1018.6
20260901113802 29 1 9.7 17.7 0.00 0.00 0.00 45 1018.7
20260901112902 29 1 6.4 22.5 0.00 0.00 0.00 45 1018.6
20260901112002 29 1 6.4 14.5 0.00 0.00 0.00 47 1018.7
20260901111102 29 1 6.4 17.7 0.00 0.00 0.00 47 1018.7